TimeEST,TemperatureF,Dew PointF,Humidity,Sea Level PressureIn,VisibilityMPH,Wind Direction,Wind SpeedMPH,Gust SpeedMPH,PrecipitationIn,Events,Conditions,WindDirDegrees,DateUTC
12:53 AM,59.0,50.0,72,30.11,10.0,NNW,5.8,-,N/A,,Mostly Cloudy,340,2013-01-22 05:53:00
1:53 AM,57.9,50.0,75,30.10,10.0,NNW,5.8,-,N/A,,Mostly Cloudy,340,2013-01-22 06:53:00
2:53 AM,60.1,45.0,57,30.10,10.0,North,6.9,-,N/A,,Overcast,10,2013-01-22 07:53:00
3:53 AM,57.9,44.1,60,30.10,10.0,North,6.9,-,N/A,,Overcast,10,2013-01-22 08:53:00
4:53 AM,57.9,44.1,60,30.11,10.0,North,5.8,-,N/A,,Overcast,360,2013-01-22 09:53:00
5:53 AM,57.0,44.1,62,30.12,10.0,North,5.8,-,N/A,,Overcast,10,2013-01-22 10:53:00
6:53 AM,55.9,43.0,62,30.16,10.0,North,4.6,-,N/A,,Mostly Cloudy,360,2013-01-22 11:53:00
7:53 AM,55.9,43.0,62,30.19,10.0,North,5.8,-,N/A,,Overcast,360,2013-01-22 12:53:00
8:53 AM,57.0,39.0,51,30.22,10.0,North,9.2,18.4,N/A,,Overcast,10,2013-01-22 13:53:00
9:53 AM,57.9,37.0,46,30.25,10.0,NNE,11.5,-,N/A,,Overcast,20,2013-01-22 14:53:00
10:53 AM,61.0,36.0,39,30.26,10.0,NNE,11.5,16.1,N/A,,Overcast,20,2013-01-22 15:53:00
11:53 AM,64.0,35.1,34,30.25,10.0,North,8.1,-,N/A,,Overcast,10,2013-01-22 16:53:00
12:53 PM,66.0,30.0,26,30.23,10.0,NE,8.1,-,N/A,,Overcast,40,2013-01-22 17:53:00
1:53 PM,66.0,28.0,24,30.21,10.0,NNE,10.4,18.4,N/A,,Overcast,20,2013-01-22 18:53:00
2:53 PM,66.0,28.0,24,30.21,10.0,NE,8.1,-,N/A,,Overcast,40,2013-01-22 19:53:00
3:53 PM,64.9,28.9,26,30.22,10.0,North,11.5,-,N/A,,Overcast,10,2013-01-22 20:53:00
4:53 PM,63.0,28.0,27,30.24,10.0,North,10.4,18.4,N/A,,Overcast,10,2013-01-22 21:53:00
5:53 PM,62.1,28.9,29,30.25,10.0,NE,5.8,-,N/A,,Overcast,40,2013-01-22 22:53:00
6:53 PM,60.1,28.9,31,30.27,10.0,NNE,4.6,-,N/A,,Mostly Cloudy,30,2013-01-22 23:53:00
7:53 PM,59.0,30.0,33,30.27,10.0,NE,3.5,-,N/A,,Overcast,40,2013-01-23 00:53:00
8:53 PM,57.9,30.0,35,30.29,10.0,Variable,3.5,-,N/A,,Overcast,0,2013-01-23 01:53:00
9:53 PM,55.9,33.1,42,30.30,10.0,NNE,3.5,-,N/A,,Mostly Cloudy,30,2013-01-23 02:53:00
10:53 PM,55.9,34.0,44,30.30,10.0,NNE,3.5,-,N/A,,Scattered Clouds,30,2013-01-23 03:53:00
11:53 PM,53.1,35.1,50,30.30,10.0,Calm,Calm,-,N/A,,Mostly Cloudy,0,2013-01-23 04:53:00